Location: ??
(35.5052°N, 139.7262°E)
Time: 18:17:26
(UTC+00:00)

SL-8 R/B - Pass Details

Date: 20 June 2021
Orbit: 656 x 667 km, 48.4° (Epoch: 29 July)

Event Time Altitude Azimuth Distance (km) Brightness Sun altitude
Rises 12:03:55 0° 309° (NW) 2,991 8.5 -20.1°
Reaches altitude 10° 12:06:20 10° 315° (NW) 2,075 7.4 -20.4°
Maximum altitude 12:11:00 51° 31° (NNE) 824 4.2 -21.0°
Enters shadow 12:12:37 35° 85° (E) 1,053 4.4 -21.2°
